Home   Weather   Elverum   Past weeks

Flag for Norway Past Weather in Elverum, Norway — Yesterday and Last 2 Weeks

Now
15 °F

Cold.


Feels Like: 15 °F
Forecast: 18 / 27 °F
Wind: 1 mph from West

Location: Haugedalshogda

Current Time: Jan 24, 2017 at 10:32:53 pm

Latest Report: Jan 24, 2017 at 9:00 pm


Visibility: N/A

Pressure: 30.22 "Hg

Humidity: 89%

Dew Point: 12 °F

Location of ElverumLocation

Past Weather in Elverum — Graph

°F

Elverum Temperature Yesterday

Maximum temperature yesterday: 23 °F (at 12:00 am)
Minimum temperature yesterday: 17 °F (at 11:00 pm)
Average temperature yesterday: 21 °F

High & Low Weather Summary for the Past Weeks

 TemperatureHumidityPressure
High41 °F (Jan 19, 1:00 pm)95% (Jan 11, 7:00 pm)30.49 "Hg (Jan 11, 7:00 pm)
Low-11 °F (Jan 15, 8:00 am)69% (Jan 16, 2:00 pm)28.61 "Hg (Jan 11, 5:00 pm)
Average17 °F89%29.92 "Hg
* Reported Jan 9 9:00 pm — Jan 24 9:00 pm, Elverum, Weather by CustomWeather, © 2017

Note: Actual official high and low records may vary slightly from our data, if they occured in-between our weather recording intervals... More about our weather records

Advertising

Elverum Weather History for the Previous 24 Hours

Scroll right to see more
 ConditionsComfort  
Time TempWeatherWind HumidityBarometerVisibility
9:00 pm
Tue, Jan 24
15 °FCold.1 mph89%30.22 "HgN/A
8:00 pm15 °FCold.1 mph92%30.22 "HgN/A
7:00 pm14 °FCold.1 mph91%30.22 "HgN/A
6:00 pm13 °FCold.1 mph88%30.22 "HgN/A
5:00 pm18 °FCold.2 mph91%30.21 "HgN/A
4:00 pm14 °FCold.1 mph89%30.21 "HgN/A
3:00 pm20 °FCold.1 mph88%30.22 "HgN/A
2:00 pm18 °FCold.2 mph90%30.22 "HgN/A
1:00 pm17 °FCold.1 mph88%30.24 "HgN/A
12:00 pm15 °FCold.No wind86%30.25 "HgN/A
11:00 am11 °FCold.1 mph87%30.27 "HgN/A
10:00 am8 °FFrigid.1 mph85%30.27 "HgN/A
9:00 am12 °FCold.No wind88%30.26 "HgN/A
8:00 am11 °FCold.No wind90%30.26 "HgN/A
7:00 am8 °FFrigid.1 mph89%30.24 "HgN/A
6:00 am8 °FFrigid.1 mph87%30.24 "HgN/A
5:00 am10 °FFrigid.No wind88%30.22 "HgN/A
4:00 am12 °FCold.1 mph90%30.22 "HgN/A
3:00 am14 °FCold.1 mph90%30.21 "HgN/A
2:00 am15 °FCold.No wind91%30.21 "HgN/A
1:00 am14 °FCold.No wind89%30.19 "HgN/A
12:00 am16 °FCold.1 mph90%30.18 "HgN/A
11:00 pm
Mon, Jan 23
17 °FCold.1 mph91%30.16 "HgN/A
10:00 pm18 °FCold.1 mph91%30.14 "HgN/A
Weather by CustomWeather, © 2017

See weather overviewHow to use our weather pages